Regional Weather Roundup
Issued by NWS

Home | Current Version | Previous Version | Text Only | Print | Product List | Glossary On
Versions: 1 2 3 4 5 6 7 8 9 10 11 12 13 14 15 16 17 18 19 20 21 22 23 24 25 26 27 28
000
ASUS44 KJAN 290410
RWRMS

MISSISSIPPI HOURLY WEATHER ROUNDUP
NATIONAL WEATHER SERVICE JACKSON MS
1100 PM CDT TUE MAR 28 2017

NOTE: "FAIR: INDICATES FEW OR NO CLOUDS BELOW 12,000 FEET WITH NO
SIGNIFICANT WEATHER AND/OR OBSTRUCTIONS TO VISIBILITY.

MSZ001>002-007>008-010>013-018>021-025>028-034>036-290500-
NORTHWEST MISSISSIPPI

CITY           SKY/WX    TMP DP  RH WIND       PRES   REMARKS
BATESVILLE     FAIR      65  59  81 CALM      29.96S
CLEVELAND      FAIR      72  67  84 E6        29.91R
GREENWOOD      CLEAR     68  64  87 CALM      29.91F
GREENVILLE     PTCLDY    72  63  73 E7        29.89S
OXFORD         MOCLDY    68  55  64 E5        29.97S
TUNICA         PTCLDY    64  55  72 NE8       29.96R
WINONA         FAIR      64  64 100 CALM      29.93S
$$

MSZ003>006-009-014>017-022>024-029>033-037>039-290500-
NORTHEAST MISSISSIPPI

CITY           SKY/WX    TMP DP  RH WIND       PRES   REMARKS
COLUMBUS AFB   CLEAR     70  62  74 E7        29.95F
CORINTH        FAIR      64  54  68 NE5       29.98S
GOLDN TRIANGLE CLEAR    N/A N/A N/A E6        29.91S
STARKVILLE     FAIR      70  63  78 E5        29.97R
TUPELO         CLEAR     69  55  60 NE6       29.97S
$$

MSZ040-058-290500-
CENTRAL MISSISSIPPI

CITY           SKY/WX    TMP DP  RH WIND       PRES   REMARKS
JACKSON INTL   CLEAR     72  63  73 S10       29.93R
JACKSON HAWKNS CLEAR     72  63  73 S15       29.93R
MADISON        FAIR      70  63  78 S5        29.93R
MERIDIAN KEY   CLEAR     68  65  90 SW6       29.96S
MERIDIAN NAS   CLEAR     69  61  75 S3        29.96S
RAYMOND        FAIR      72  64  78 S7        29.92R
VICKSBURG VKS  CLEAR     73  64  73 S9        29.89R
$$

MSZ059>079-290500-
SOUTH MISSISSIPPI

CITY           SKY/WX    TMP DP  RH WIND       PRES   REMARKS
HATTIESBURG    CLEAR     70  66  87 S6        29.98R
MCCOMB         CLEAR     68  64  87 S7        29.95S
NATCHEZ        NOT AVBL
PINE BELT      CLEAR     68  63  83 S5        29.98S
$$

MSZ080>082-290500-
COASTAL MISSISSIPPI

CITY           SKY/WX    TMP DP  RH WIND       PRES   REMARKS
BILOXI         PTCLDY    73  70  88 S13       29.97S
PASCAGOULA     PTCLDY    72  67  84 S5        29.99S
GULFPORT       PTCLDY    74  69  85 S9        29.97S
$$

LAZ007>009-015>016-023>026-290500-
NORTHEAST LOUISIANA

CITY           SKY/WX    TMP DP  RH WIND       PRES   REMARKS
BASTROP        FAIR      69  67  94 CALM      29.88S
TALLULAH/VBURG CLEAR     72  64  76 S10       29.90S
VIDALIA        FAIR      72  65  78 SE7       29.90S
$$




USA.gov is the U.S. government's official web portal to all federal, state and local government web resources and services.